Regional Weather Roundup
Issued by NWS Cleveland, OH

Home | Current Version | Previous Version | Graphics & Text | Print | Product List | Glossary On
Versions: 1 2 3 4 5 6 7 8 9 10 11 12 13 14 15 16 17 18 19 20 21 22 23 24 25 26 27 28 29 30 31 32 33 34 35 36 37 38 39 40 41 42 43 44 45 46 47 48 49 50
000
ASUS41 KCLE 061910
RWRCLE
OHIO REGIONAL WEATHER ROUNDUP
NATIONAL WEATHER SERVICE WILMINGTON, OH
300 PM EDT MON JUL 06 2015

NOTE: "FAIR" INDICATES FEW OR NO CLOUDS BELOW 12,000 FEET WITH NO
SIGNIFICANT WEATHER AND/OR OBSTRUCTIONS TO VISIBILITY.

OHZ001>008-015>018-024>027-034-035-043-044-062000-
   NORTHWEST OHIO

CITY           SKY/WX    TMP DP  RH WIND       PRES   REMARKS
DEFIANCE       SUNNY     84  61  45 VRB5      30.02F
FINDLAY        SUNNY     83  61  47 SW10      30.04F
TOLEDO EXPRESS SUNNY     83  61  47 S7        30.03F
TOLEDO EXEC    SUNNY     83  56  39 SW8       30.04F
LIMA           SUNNY     82  63  52 SW9       30.05F
$$

OHZ009>014-019>023-028>033-038-089-062000-
   NORTHEAST OHIO

CITY           SKY/WX    TMP DP  RH WIND       PRES   REMARKS
CLE-HOPKINS    MOSUNNY   82  63  52 VRB6      30.05F
CLE-LAKEFRONT  SUNNY     77  67  71 NW8       30.02F
CUY CO. ARPT   MOSUNNY   82  63  51 N12       30.04F HAZE
LORAIN-ELYRIA  MOSUNNY   82  63  52 CALM      30.04F
ASHTABULA      PTSUNNY   80  63  55 N6        30.04F
AKRON-CANTON   PTSUNNY   86  65  49 VRB3      30.03F
WOOSTER        SUNNY     82  66  58 W3        30.05F
MANSFIELD      MOSUNNY   81  65  58 SW8       30.06F
YOUNGSTOWN     PTSUNNY   82  68  62 SE10      30.03F
$$

OHZ042-051>053-060>062-070>072-077>081-062000-
  SOUTHWEST OHIO

CITY           SKY/WX    TMP DP  RH WIND       PRES   REMARKS
CINC-COVINGTON SUNNY     83  66  56 VRB5      30.08F
CINC-LUNKEN    MOSUNNY   83  62  49 W6        30.07F
HAMILTON       MOSUNNY   84  67  56 VRB3      30.08F
DAYTON         MOSUNNY   83  64  52 W9        30.08F
WRIGHT-PAT AFB MOSUNNY   82  61  48 SW6       30.07S
DAYTON GENERAL MOSUNNY   81  63  54 VRB3      30.07F
WILMINGTON     MOSUNNY   80  60  50 W10       30.09S
$$

OHZ036-037-039>041-045>050-054>059-063>069-073>076-082>088-062000-
  CENTRAL AND SOUTHEAST OHIO

CITY           SKY/WX    TMP DP  RH WIND       PRES   REMARKS
COLUMBUS       MOSUNNY   83  65  54 W9        30.05S
OSU AIRPORT    MOSUNNY   84  66  54 SW13      30.06S
BOLTON FIELD   MOSUNNY   81  66  61 S8        30.07F
RICKENBACK AFB MOSUNNY   82  66  57 SW10      30.06S
NEWARK         MOSUNNY   82  65  56 CALM      30.05F
MARION         MOSUNNY   82  63  52 W8        30.07S
LANCASTER      MOSUNNY   83  66  56 NW5       30.06F
ZANESVILLE     MOSUNNY   83  66  56 W9        30.05F
NEW PHILLY     PTSUNNY   82  68  62 CALM      30.03F
$$



USA.gov is the U.S. government's official web portal to all federal, state and local government web resources and services.